Location: Aufkirchen
(47.9603°N, 11.3653°E)
Time: 11:26:06
(UTC+01:00)

Tiros 1 - Pass Details

Date: 01 December 2020
Orbit: 630 x 663 km, 48.4° (Epoch: 21 January)

Event Time Altitude Azimuth Distance (km) Brightness Sun altitude
Rises 15:20:34 0° 238° (WSW) 2,986 12.5 7.4°
Reaches altitude 10° 15:22:57 10° 234° (SW) 2,076 12.3 7.1°
Maximum altitude 15:27:39 57° 156° (SSE) 779 7.9 6.5°
Drops below altitude 10° 15:32:20 10° 79° (E) 2,074 9.3 6.0°
Sets 15:34:42 0° 75° (ENE) 2,984 10.0 5.7°
